Printer-friendly version

IAU Minor Planet Center

Minor Planet Center

MPEC 2006-B11 : 2006 BB

The following Minor Planet Electronic Circular may be linked-to from your own Web pages, but must not otherwise be redistributed electronically.


Read MPEC 2006-B10 Read MPEC 2006-B12


M.P.E.C. 2006-B11                                Issued 2006 Jan. 19, 16:58 UT

     The Minor Planet Electronic Circulars contain information on unusual
         minor planets and routine data on comets.  They are published
   on behalf of Commission 20 of the International Astronomical Union by the
          Minor Planet Center, Smithsonian Astrophysical Observatory,
                          Cambridge, MA 02138, U.S.A.

                  Supported in part by the Brinson Foundation
                  Supported in part by the TABASGO Foundation
             Prepared using the Tamkin Foundation Computer Network

                              MPC@CFA.HARVARD.EDU
          URL http://cfa-www.harvard.edu/iau/mpc.html  ISSN 1523-6714

                                    2006 BB

Observations:
     K06B00B* C2006 01 18.30839 08 32 47.18 -04 28 56.4          19.9 V EB011703
     K06B00B  C2006 01 18.31512 08 32 46.68 -04 28 35.6          18.8 V EB011703
     K06B00B  C2006 01 18.32185 08 32 46.14 -04 28 14.0          18.6 V EB011703
     K06B00B  C2006 01 18.32859 08 32 45.67 -04 27 52.0          18.9 V EB011703
     K06B00B  C2006 01 18.37107 08 32 42.46 -04 25 33.5          18.2 V EB011703
     K06B00B  C2006 01 18.37897 08 32 41.82 -04 25 07.7          18.9 V EB011703
     K06B00B  C2006 01 18.38694 08 32 41.24 -04 24 42.0          17.9 V EB011703
     K06B00B  C2006 01 18.39488 08 32 40.59 -04 24 17.6          18.3 V EB011703
     K06B00B  C2006 01 19.22667 08 31 41.26 -03 38 44.7                 EB011734
     K06B00B  C2006 01 19.23133 08 31 40.96 -03 38 29.1                 EB011734
     K06B00B  C2006 01 19.23600 08 31 40.52 -03 38 11.8                 EB011734
     K06B00B  C2006 01 19.23851 08 31 40.54 -03 38 03.0          19.1 V EB011703
     K06B00B  C2006 01 19.24068 08 31 40.15 -03 37 57.6                 EB011734
     K06B00B  C2006 01 19.24509 08 31 40.08 -03 37 41.8          19.3 V EB011703
     K06B00B  C2006 01 19.25169 08 31 39.54 -03 37 19.3          20.1 V EB011703
     K06B00B  C2006 01 19.26036 08 31 38.95 -03 36 50.2          19.0 V EB011703
     K06B00B  C2006 01 19.26710 08 31 38.36 -03 36 28.6          19.0 V EB011703
     K06B00B  C2006 01 19.27382 08 31 37.81 -03 36 05.6          18.9 V EB011703
     K06B00B  C2006 01 19.28054 08 31 37.32 -03 35 44.6          19.0 V EB011703
     K06B00B 1C2006 01 19.46179 08 31 23.82 -03 25 36.2                 EB011F65
     K06B00B 1C2006 01 19.46274 08 31 23.75 -03 25 32.8                 EB011F65
     K06B00B 1C2006 01 19.46372 08 31 23.66 -03 25 29.6                 EB011F65
     K06B00B 3C2006 01 19.58918 08 31 13.78 -03 18 29.4          17.9 R EB011F65
     K06B00B 3C2006 01 19.59010 08 31 13.75 -03 18 26.3          18.2 R EB011F65
     K06B00B 3C2006 01 19.59103 08 31 13.66 -03 18 23.3          17.9 R EB011F65
     K06B00B  C2006 01 19.65166 08 31 09.72 -03 14 46.8          19.8 V EB011E12
     K06B00B  C2006 01 19.65252 08 31 09.54 -03 14 44.1          19.3 V EB011E12
     K06B00B  C2006 01 19.65340 08 31 09.53 -03 14 42.0                 EB011E12

Observer details:
703 Catalina Sky Survey.  Observer R. A. Kowalski.  Measurers E. C. Beshore,
    E. J. Christensen, G. J. Garradd, A. D. Grauer, R. E. Hill, R. A. Kowalski,
    S. M. Larson, R. H. McNaught.  0.68-m Schmidt + CCD.
734 Farpoint Observatory.  Observer D. Tibbets.  0.7-m reflector + CCD.
E12 Siding Spring Survey.  Observer G. J. Garradd.  Measurers E. C. Beshore,
    E. J. Christensen, G. J. Garradd, A. D. Grauer, R. E. Hill, R. A. Kowalski,
    S. M. Larson, R. H. McNaught.  0.5-m Uppsala Schmidt + CCD.
F65 Haleakala-Faulkes Telescope North.  Observers A. Fitzsimmons, S. C. Lowry,
    C. Snodgrass, C. A. Saywer, C. J. Barry, M. S. S. Cooke, A. S. E. Allen,
    G. A. Mayhew, M. J. Fitch, M. E. Morgan, A. D. Taylor.  2.0-m
    Ritchey-Chretien + CCD, 2.0-m f/10.0 reflector + CCD.

Orbital elements:
2006 BB
Epoch 2006 Mar. 6.0 TT = JDT 2453800.5                  MPC
M   5.44193              (2000.0)            P               Q
n   0.34538587     Peri.    4.31675     -0.72176949     -0.49538147
a   2.0118689      Node   133.03417     +0.61357619     -0.78111830
e   0.2321153      Incl.   41.39850     +0.32027029     +0.38006763
P   2.85           H   18.2           G   0.15           U   9
Residuals in seconds of arc
060118 703  0.3-  0.8+    060119 734  0.5-  1.3+    060119 F65  0.4+  0.4+
060118 703  0.1-  0.2-    060119 703  0.4-  0.4+    060119 F65  0.2+  0.3+
060118 703  0.5-  0.4-    060119 734  0.6-  0.1-    060119 F65  0.5-  0.0
060118 703  0.1+  0.3-    060119 703  0.3+  0.3-    060119 F65  0.1+  0.0
060118 703  0.6+  0.4+    060119 703  0.1-  0.3+    060119 F65  0.2-  0.2-
060118 703  0.0   0.5+    060119 703  1.1+  0.6+    060119 E12  0.7+  0.3+
060118 703  0.4+  0.3+    060119 703  0.1+  0.3-    060119 E12  1.0-  0.1+
060118 703  0.3-  1.1-    060119 703  0.3-  0.4+    060119 E12  0.1-  0.7-
060119 734  0.2-  0.6-    060119 703  0.1+  1.0-
060119 734  0.7+  0.5-    060119 F65  0.4+  0.2+

Ephemeris:
2006 BB                  a,e,i = 2.01, 0.23, 41                  q = 1.5449
Date    TT    R. A. (2000) Decl.     Delta      r     Elong.  Phase     V
2006 01 15    08 36.53   -07 19.0    0.634    1.562   148.9    19.0    19.1
2006 01 25    08 24.28   +02 04.0    0.585    1.553   163.0    10.7    18.7
2006 02 04    08 10.60   +13 07.3    0.574    1.548   165.4     9.3    18.6
2006 02 14    07 58.43   +23 56.0    0.603    1.545   151.7    17.7    19.0
2006 02 24    07 50.40   +32 54.6    0.667    1.545   136.9    25.9    19.4
2006 03 06    07 48.26   +39 35.8    0.754    1.548   124.4    31.9    19.9
2006 03 16    07 52.56   +44 18.1    0.855    1.554   114.1    35.7    20.3
2006 03 26    08 02.90   +47 29.4    0.964    1.563   105.7    37.9    20.6
2006 04 05    08 18.49   +49 32.0    1.074    1.574    98.7    38.9    20.9
2006 04 15    08 38.29   +50 41.0    1.183    1.588    92.8    39.1    21.1
2006 04 25    09 01.20   +51 05.9    1.289    1.604    87.8    38.8    21.3
2006 05 05    09 26.27   +50 52.7    1.390    1.622    83.5    38.1    21.5
2006 05 15    09 52.58   +50 06.1    1.486    1.643    79.8    37.3    21.6
2006 05 25    10 19.39   +48 49.6    1.578    1.665    76.5    36.3    21.8
2006 06 04    10 46.18   +47 06.3    1.664    1.688    73.7    35.2    21.9
2006 06 14    11 12.57   +44 59.7    1.747    1.713    71.1    34.1    22.0

Kyle E. Smalley              (C) Copyright 2006 MPC           M.P.E.C. 2006-B11

Read MPEC 2006-B10 Read MPEC 2006-B12


Our Web policy. Index to the CBAT/MPC/ICQ pages.


Valid HTML 4.01!